[TLELIST] Archives

 

[TLELIST] Current TLEs

December 9th 2023 PDT

HST 1 20580U 90037B 23342.94974098 .00003442 00000-0 16885-3 0 9992 2 20580 28.4671 183.6761 0002790 106.0720 36.0897 15.15143436648241 ISS (ZARYA) 1 25544U 98067A 23343.07755144 .00026603 00000-0 46764-3 0 9995 2 25544 51.6400 182.2887 0001365 15.2823 127.3497 15.50296263428916 CXO 1 25867U 99040B 23345.12228794 .00000620 00000-0 00000-0 0 9990 2 25867 37.8845 174.2583 9021415 280.8721 0.4605 0.37814577 13848 ...Continue Reading

[TLELIST] Current TLEs

December 8th 2023 PDT

HST 1 20580U 90037B 23341.82140612 .00003791 00000-0 18702-3 0 9992 2 20580 28.4672 191.2055 0002805 96.1090 359.2853 15.15136278648067 ISS (ZARYA) 1 25544U 98067A 23342.30734084 .00012049 00000-0 21670-3 0 9998 2 25544 51.6394 186.1058 0001294 7.8659 153.3851 15.50269878428797 CXO 1 25867U 99040B 23345.11958753 .00000620 00000-0 00000+0 0 9993 2 25867 37.8844 174.2582 9021418 280.8722 0.0927 0.37814394 25001 ...Continue Reading

[TLELIST] Current TLEs

December 7th 2023 PDT

HST 1 20580U 90037B 23340.90266007 .00004391 00000-0 21825-3 0 9994 2 20580 28.4673 197.3364 0002807 87.5477 26.5811 15.15130046647663 ISS (ZARYA) 1 25544U 98067A 23341.21222630 .00013946 00000-0 24974-3 0 9993 2 25544 51.6410 191.5311 0001459 12.9146 152.5505 15.50245044428627 CXO 1 25867U 99040B 23342.47494569 .00000616 00000-0 00000-0 0 9995 2 25867 37.8696 174.5342 9024826 280.6536 359.9993 0.37816324 13832 ...Continue Reading

[TLELIST] Current TLEs

December 6th 2023 PDT

HST 1 20580U 90037B 23340.04729344 .00005011 00000-0 25049-3 0 9999 2 20580 28.4675 203.0446 0002803 78.4367 40.8361 15.15123365647793 ISS (ZARYA) 1 25544U 98067A 23340.48651887 .00014051 00000-0 25175-3 0 9993 2 25544 51.6416 195.1287 0001458 11.2264 61.5007 15.50224296428517 CXO 1 25867U 99040B 23342.47494569 .00000616 00000-0 00000-0 0 9995 2 25867 37.8696 174.5342 9024826 280.6536 359.9993 0.37816324 13832 ...Continue Reading

[TLELIST] Current TLEs

December 5th 2023 PDT

HST 1 20580U 90037B 23338.92755454 .00005515 00000-0 27674-3 0 9999 2 20580 28.4675 210.5168 0002815 67.4522 52.1211 15.15113261647627 ISS (ZARYA) 1 25544U 98067A 23339.01611087 .00032187 00000-0 56578-3 0 9999 2 25544 51.6402 202.4175 0001285 358.1544 143.2048 15.50194500428283 CXO 1 25867U 99040B 23339.82924090 .00000603 00000-0 00000-0 0 9993 2 25867 37.8433 174.8417 9028744 280.4057 359.8056 0.37813762 13838 ...Continue Reading

[TLELIST] Current TLEs

December 4th 2023 PDT

HST 1 20580U 90037B 23337.86689897 .00006702 00000-0 33853-3 0 9993 2 20580 28.4675 217.5951 0002811 56.8354 25.9842 15.15102926647461 ISS (ZARYA) 1 25544U 98067A 23338.37354762 .00025938 00000-0 45807-3 0 9990 2 25544 51.6413 205.6006 0001103 2.0102 151.0955 15.50179000428188 CXO 1 25867U 99040B 23337.18489448 .00000577 00000-0 00000-0 0 9993 2 25867 37.8134 175.2086 9031540 280.0963 359.8344 0.37811457 13810 ...Continue Reading

[TLELIST] Current TLEs

December 3rd 2023 PDT

HST 1 20580U 90037B 23336.88076205 .00007674 00000-0 38917-3 0 9992 2 20580 28.4675 224.1748 0002695 48.3760 44.9952 15.15087871647055 ISS (ZARYA) 1 25544U 98067A 23337.40753170 .00020668 00000-0 36782-3 0 9996 2 25544 51.6412 210.3871 0001391 7.1799 151.4629 15.50104594428039 CXO 1 25867U 99040B 23337.18489448 .00000577 00000-0 00000-0 0 9993 2 25867 37.8134 175.2086 9031540 280.0963 359.8344 0.37811457 13810 ...Continue Reading

[TLELIST] Current TLEs

December 2nd 2023 PDT

HST 1 20580U 90037B 23335.11081230 .00007883 00000-0 40040-3 0 9993 2 20580 28.4678 235.9859 0002699 29.4466 110.9157 15.15055834646782 ISS (ZARYA) 1 25544U 98067A 23336.48733383 .00030290 00000-0 53530-3 0 9999 2 25544 51.6412 214.9466 0001301 3.2675 56.9965 15.50073145427892 CXO 1 25867U 99040B 23337.18489448 .00000577 00000-0 00000-0 0 9993 2 25867 37.8134 175.2086 9031540 280.0963 359.8344 0.37811457 13810 ...Continue Reading

[TLELIST] Current TLEs

December 2nd 2023 PDT

HST 1 20580U 90037B 23335.11081230 .00007883 00000-0 40040-3 0 9993 2 20580 28.4678 235.9859 0002699 29.4466 110.9157 15.15055834646782 ISS (ZARYA) 1 25544U 98067A 23336.48733383 .00030290 00000-0 53530-3 0 9999 2 25544 51.6412 214.9466 0001301 3.2675 56.9965 15.50073145427892 CXO 1 25867U 99040B 23337.18489448 .00000577 00000-0 00000-0 0 9993 2 25867 37.8134 175.2086 9031540 280.0963 359.8344 0.37811457 13810 ...Continue Reading

[TLELIST] Current TLEs

December 1st 2023 PDT

HST 1 20580U 90037B 23335.11081230 .00007883 00000-0 40040-3 0 9993 2 20580 28.4678 235.9859 0002699 29.4466 110.9157 15.15055834647053 ISS (ZARYA) 1 25544U 98067A 23335.33606575 .00019842 00000-0 35462-3 0 9998 2 25544 51.6423 220.6499 0001037 7.4772 104.3112 15.50011613427719 CXO 1 25867U 99040B 23337.18489448 .00000577 00000-0 00000+0 0 9992 2 25867 37.8134 175.2086 9031540 280.0963 359.8344 0.37811457 24979 ...Continue Reading
  • This mailing list is a public mailing list - anyone may join or leave, at any time.
  • This mailing list is announce-only.

International Space Station (ISS) / Hubble Space Telescope (HST) / Chandra X-Ray Observatory Orbital Data via EMAIL

Privacy Policy:

Private list